Location: Newark
(60.6561°N, 46.5772°E)
Time: 20:46:22
(UTC+00:00)

Tiros 1 - Pass Details

Date: 22 October 2019
Orbit: 630 x 664 km, 48.4° (Epoch: 12 November)

Event Time Altitude Azimuth Distance (km) Brightness Sun altitude
Exits shadow 01:03:35 19° 186° (S) 1,573 8.9 -21.0°
Maximum altitude 01:03:44 19° 183° (S) 1,572 8.9 -21.0°
Drops below altitude 10° 01:07:04 10° 139° (SE) 2,084 10.1 -20.6°
Sets 01:09:59 0° 122° (ESE) 2,995 11.2 -20.2°
